CW1334 Weather Reports


Display with metric or nautical units.
time (UTC)temp
F
wind
direction
speed
MPH
gust
MPH
rain 1hr
in
rain 24hr
in
rain mn
in
humidity
%
barometer
mb
20260906230107 63 302 6.0 12.0 0.00 0.10 0.00 78 1015.3
20260906224604 63 302 4.0 8.0 0.00 0.10 0.00 77 1015.4
20260906223101 63 330 2.0 6.0 0.00 0.10 0.00 77 1015.6
20260906221605 63 16 4.0 10.0 0.00 0.10 0.00 78 1015.6
20260906220104 63 40 6.0 10.0 0.00 0.10 0.00 78 1015.6
20260906214602 63 12 8.0 12.0 0.00 0.10 0.00 78 1015.6
20260906213100 63 41 7.0 11.0 0.00 0.10 0.00 78 1015.5
20260906211608 63 12 5.0 12.0 0.00 0.10 0.00 77 1015.5
20260906210109 63 32 8.0 13.0 0.00 0.10 0.00 76 1015.5
20260906204600 63 34 5.0 11.0 0.00 0.10 0.00 77 1015.5
20260906203105 63 30 6.0 12.0 0.00 0.10 0.00 77 1015.5
20260906201605 62 36 5.0 11.0 0.00 0.10 0.00 77 1015.7
20260906200111 62 24 6.0 11.0 0.00 0.10 0.00 76 1015.9
20260906194604 62 38 4.0 12.0 0.00 0.10 0.00 75 1015.9
20260906193056 62 21 8.0 15.0 0.00 0.10 0.00 76 1015.8
20260906191604 62 17 10.0 16.0 0.00 0.10 0.00 75 1015.8
20260906190109 62 60 9.0 20.0 0.00 0.10 0.00 73 1016.0
20260906184626 62 31 12.0 18.0 0.00 0.10 0.00 74 1016.0
20260906183100 62 60 5.0 17.0 0.00 0.10 0.00 76 1016.1
20260906181603 61 19 8.0 15.0 0.00 0.10 0.00 80 1015.9
20260906174603 57 67 7.0 12.0 0.00 0.10 0.00 91 1016.4
20260906173110 57 259 2.0 6.0 0.00 0.10 0.00 91 1017.9
20260906171608 57 344 1.0 4.0 0.00 0.10 0.00 92 1018.2
20260906170100 57 0 0.0 2.0 0.00 0.10 0.00 92 1018.0
20260906164601 57 0 0.0 2.0 0.00 0.10 0.00 92 1018.0
20260906163104 56 0 0.0 2.0 0.00 0.10 0.00 92 1018.1
20260906161556 56 0 0.0 5.0 0.00 0.10 0.00 92 1017.7
20260906160057 55 348 1.0 8.0 0.00 0.10 0.00 92 1018.0
20260906154603 55 304 3.0 9.0 0.00 0.10 0.00 91 1018.2
20260906153057 55 346 7.0 13.0 0.00 0.10 0.00 90 1018.6
20260906151558 55 278 12.0 18.0 0.00 0.10 0.00 88 1018.5
20260906150107 55 309 8.0 17.0 0.00 0.10 0.00 88 1018.8
20260906144602 57 292 14.0 21.0 0.00 0.10 0.00 85 1019.0
20260906143059 58 350 3.0 6.0 0.00 0.10 0.00 88 1018.6
20260906141600 58 40 6.0 10.0 0.00 0.10 0.00 88 1018.2
20260906140116 58 34 3.0 7.0 0.00 0.10 0.00 87 1018.3
20260906134622 58 41 3.0 9.0 0.00 0.14 0.00 88 1018.2
20260906133100 57 55 6.0 10.0 0.00 0.14 0.00 89 1017.9
20260906131557 57 355 3.0 7.0 0.00 0.14 0.00 90 1018.0
20260906130147 56 47 4.0 10.0 0.00 0.14 0.00 90 1018.1
20260906124609 56 61 5.0 12.0 0.00 0.14 0.00 90 1018.3
20260906123102 56 62 5.0 11.0 0.00 0.14 0.00 91 1018.3
20260906121609 56 25 5.0 11.0 0.00 0.14 0.00 90 1018.0
20260906120111 56 9 9.0 14.0 0.00 0.14 0.00 90 1018.2
20260906114602 56 22 6.0 12.0 0.00 0.14 0.00 89 1018.4
20260906113100 56 10 6.0 14.0 0.00 0.14 0.00 89 1018.2
20260906111555 56 65 9.0 15.0 0.00 0.14 0.00 88 1018.3
20260906110100 56 23 8.0 16.0 0.00 0.14 0.00 88 1018.3
20260906104558 57 352 6.0 14.0 0.00 0.14 0.00 87 1018.5
20260906103100 57 11 6.0 14.0 0.00 0.14 0.00 87 1018.5
20260906101604 57 36 8.0 15.0 0.00 0.14 0.00 87 1018.4
20260906100059 56 34 10.0 19.0 0.00 0.14 0.00 88 1018.5
20260906094558 57 17 12.0 18.0 0.00 0.14 0.00 86 1018.5
20260906093059 57 9 6.0 16.0 0.00 0.14 0.00 86 1018.6
20260906091556 58 332 9.0 19.0 0.00 0.14 0.00 85 1018.7
20260906090104 58 348 9.0 20.0 0.00 0.14 0.00 85 1018.8
20260906084559 57 307 10.0 15.0 0.00 0.14 0.00 86 1019.4
20260906083105 57 5 6.0 13.0 0.00 0.14 0.00 87 1019.4
20260906081558 56 322 4.0 9.0 0.00 0.14 0.00 87 1019.3
20260906080106 56 319 4.0 13.0 0.00 0.14 0.00 87 1019.1
20260906074559 57 344 5.0 13.0 0.00 0.14 0.00 86 1019.1
20260906073059 57 15 5.0 10.0 0.00 0.14 0.00 86 1019.2
20260906071556 58 348 8.0 17.0 0.00 0.14 0.00 85 1019.2
20260906064559 58 355 4.0 13.0 0.00 0.14 0.00 85 1020.0
20260906063058 58 355 8.0 21.0 0.00 0.14 0.00 85 1020.0
20260906061626 58 11 12.0 18.0 0.00 0.14 0.00 85 1019.7
20260906060123 57 346 9.0 17.0 0.00 0.14 0.00 85 1020.0
20260906054606 57 360 8.0 18.0 0.01 0.14 0.14 85 1020.0
20260906053104 57 38 8.0 21.0 0.01 0.14 0.14 84 1019.5
20260906051609 57 275 11.0 17.0 0.01 0.14 0.14 83 1019.6
20260906044559 58 360 11.0 18.0 0.00 0.13 0.13 81 1019.4
20260906043107 58 355 12.0 22.0 0.01 0.13 0.13 81 1019.4
20260906041605 57 19 13.0 23.0 0.09 0.13 0.13 82 1018.8
20260906040106 58 18 14.0 24.0 0.09 0.13 0.13 82 1018.8
20260906034605 58 20 13.0 21.0 0.09 0.13 0.13 81 1019.1
20260906033058 59 15 8.0 17.0 0.08 0.12 0.12 78 1019.5
20260906031604 61 323 9.0 16.0 0.00 0.04 0.04 68 1020.0
20260906030100 60 38 11.0 19.0 0.00 0.04 0.04 69 1018.5
20260906024559 61 346 11.0 18.0 0.00 0.04 0.04 68 1018.1
20260906023109 61 5 10.0 22.0 0.00 0.04 0.04 68 1017.9
20260906021558 62 32 13.0 23.0 0.00 0.04 0.04 66 1017.7
20260906020057 62 27 12.0 19.0 0.00 0.04 0.04 65 1017.8
20260906014607 63 9 11.0 20.0 0.00 0.04 0.04 63 1017.8
20260906013100 64 69 9.0 15.0 0.00 0.04 0.04 60 1017.8
20260906011606 66 28 9.0 16.0 0.00 0.04 0.04 57 1017.6
20260906010059 66 65 9.0 14.0 0.00 0.04 0.04 57 1017.7
20260906004604 67 355 10.0 16.0 0.00 0.04 0.04 56 1017.9
20260906003101 68 5 9.0 17.0 0.00 0.04 0.04 53 1017.9
20260906001559 69 95 12.0 17.0 0.00 0.04 0.04 53 1017.9
20260906000058 69 52 10.0 16.0 0.00 0.04 0.04 51 1017.9
20260905234606 71 15 8.0 13.0 0.00 0.04 0.04 47 1018.1
20260905233116 72 19 4.0 11.0 0.00 0.04 0.04 45 1018.0
20260905231558 72 21 6.0 15.0 0.00 0.04 0.04 45 1018.1